Regional Weather Roundup
Issued by NWS

Home | Current Version | Previous Version | Graphics & Text | Print | Product List | Glossary On
Versions: 1 2 3 4 5 6 7 8 9 10 11 12 13 14 15 16 17 18 19 20 21 22 23 24 25 26 27 28 29 30 31 32 33 34 35 36 37 38 39 40 41 42 43 44 45 46 47 48 49 50
000
ASUS45 KPSR 260410
RWRAZ

ARIZONA REGIONAL HOURLY WEATHER ROUNDUP
NATIONAL WEATHER SERVICE PHOENIX AZ
900 PM MST FRI JUL 25 2014

NOTE: FAIR INDICATES FEW OR NO CLOUDS BELOW 12,000 FEET WITH NO
SIGNIFICANT WEATHER AND/OR OBSTRUCTIONS TO VISIBILITY.

AZZ001>003-036-260500-
NORTHWEST ARIZONA

CITY           SKY/WX    TMP DP  RH WIND       PRES   REMARKS
BULLHEAD CITY  PTCLDY   104  59  22 S10       29.76R HX 104
KINGMAN        CLOUDY    82  59  45 E23       30.06R
$$

AZZ004>008-015-016-018-260500-
NORTH CENTRAL ARIZONA

CITY           SKY/WX    TMP DP  RH WIND       PRES   REMARKS
GRAND CANYON   CLOUDY    71  47  42 W5        30.31R
WILLIAMS       CLOUDY    68  52  56 SE6       30.38S
PRESCOTT       CLOUDY    68  57  68 S7        30.20F
FLAGSTAFF      CLOUDY    70  48  45 CALM      30.33F
PAYSON         CLOUDY    75  59  57 W6G12     30.22R
PAGE           MOCLDY    88  50  27 VRB3      30.08R
$$

AZZ009>014-017-260500-
NORTHEAST ARIZONA

CITY           SKY/WX    TMP DP  RH WIND       PRES   REMARKS
WINSLOW        LGT RAIN  79  57  46 NE7       30.17R
SAINT JOHNS    PTCLDY    81  48  31 SW20      30.16R
WINDOW ROCK    MOCLDY    80  38  22 VRB3      30.26R
SHOW LOW       MOCLDY    73  45  35 S8        30.29R
$$

AZZ023-260500-
GREATER PHOENIX AREA

CITY           SKY/WX    TMP DP  RH WIND       PRES   REMARKS
PHOENIX        CLOUDY    91  63  39 E21       29.86R
BUCKEYE          N/A     91  57  31 W5        29.87F
LUKE AFB       NOT AVBL
DEER VALLEY    CLOUDY    91  58  32 VRB3      29.87F
SCOTTSDALE     CLOUDY    88  64  44 E6        29.92R
MESA-GATEWAY     N/A    N/A N/A N/A MISG        N/A
CHANDLER       MOCLDY    88  61  40 SE14      29.90R
$$

AZZ027-028-260500-
SOUTHWEST MARICOPA COUNTY AND PINAL COUNTY

CITY           SKY/WX    TMP DP  RH WIND       PRES   REMARKS
CASA GRANDE    CLOUDY    82  61  47 SW12      29.91F
$$

AZZ503-504-507>509-260500-
SOUTHEAST ARIZONA

CITY           SKY/WX    TMP DP  RH WIND       PRES   REMARKS
TUCSON         CLOUDY    80  61  52 W7        30.06R
DAVIS-MONTHAN  CLOUDY    80  61  53 W7        30.04R
NOGALES        MOCLDY    71  64  78 CALM      30.12S
SIERRA VISTA   PTCLDY    73  57  56 W14       30.17R
DOUGLAS        PTCLDY    75  58  55 NW14      30.11R
SAFFORD        CLEAR     86  57  37 NW26G37   29.99R
$$

AZZ020-021-025-026-031-260500-
SOUTHWEST ARIZONA

CITY           SKY/WX    TMP DP  RH WIND       PRES   REMARKS
YUMA           CLOUDY   100  59  25 S13       29.78R HX 100
$$

CAZ031-033-041-043-047-048-061-260500-
SOUTHERN CALIFORNIA

CITY           SKY/WX    TMP DP  RH WIND       PRES   REMARKS
DOWNTOWN L.A.  PTCLDY    73  64  73 CALM      29.90R
L.A. AIRPORT   PTCLDY    70  63  78 SW6       29.91R
SAN DIEGO      MOCLDY    71  64  78 W6        29.92R
BURBANK        PTCLDY    76  63  64 SE12      29.91R
ONTARIO        MOCLDY    79  61  53 W8        29.92R
RIVERSIDE      CLEAR     79  62  56 W6        29.92R
PALM SPRINGS   PTCLDY    93  71  48 CALM      29.79R HX 100
EL CENTRO NAS  MOCLDY    98  63  31 SE13      29.74R HX 100
IMPERIAL       PTCLDY   100  62  28 SE13      29.74R HX 101
BLYTHE         MOCLDY   104  57  21 S12       29.76R HX 103
NEEDLES        MOCLDY   102  62  26 SW10      29.77R HX 104
$$

NVZ020-UTZ003-260500-
SOUTHERN NEVADA-UTAH

CITY           SKY/WX    TMP DP  RH WIND       PRES   REMARKS
LAS VEGAS      MOCLDY    99  52  20 S15       29.82R
SALT LAKE CITY PTCLDY    83  40  21 CALM      29.96R
$$

NMZ009-TXZ055-260500-
NEW MEXICO-WEST TEXAS

CITY           SKY/WX    TMP DP  RH WIND       PRES   REMARKS
ALBUQUERQUE    PTCLDY    86  44  23 SE5       30.10R
EL PASO        PTCLDY    91  47  21 SE6       30.02R
$$


........................KEY........................
SKY/WX - SKY CONDITION/WEATHER
TMP    - TEMPERATURE IN FAHRENHEIT
DP     - DEW POINT IN FAHRENHEIT
RH     - RELATIVE HUMIDITY IN PERCENT
WIND   - DIRECTION AND SPEED IN MILES PER HOUR (MPH)
VRB    - VARIABLE WIND DIRECTION
PRES   - MEAN SEA LEVEL PRESSURE IN INCHES OF MERCURY
         F - FALLING PRESSURE   R - RISING PRESSURE
         S - STEADY PRESSURE
VSB    - VISIBILITY IN MILES
HX     - HEAT INDEX IN FAHRENHEIT
WCI    - WIND CHILL INDEX IN FAHRENHEIT
TC     - TEMPERATURE IN CELSIUS WHICH IS ALSO KNOWN AS
         TEMPERATURE IN CENTIGRADE
AFB    - AIR FORCE BASE
         LUKE AFB IS LUKE AIR FORCE BASE
         DAVIS-MONTHAN IS DAVIS-MONTHAN AIR FORCE BASE
NAS    - NAVAL AIR STATION
         EL CENTRO NAS IS EL CENTRO NAVAL AIR STATION
N/A    - NOT AVAILABLE


USA.gov is the U.S. government's official web portal to all federal, state and local government web resources and services.